Nabq, Egypt

1:37 PM EET on February 24, 2017 (GMT +0200)
Sharm El Sheikh International

Weather History for HESH - March, 2014

Change the Weather History Date:

Sunday, March 23, 2014

  Actual Average Record
Temperature  
Mean Temperature 80 °F -  
Max Temperature 91 °F - - ()
Min Temperature 69 °F - - ()
Cooling Degree Days 15    
Growing Degree Days 30 (Base 50)    
Moisture  
Dew Point 45 °F    
Average Humidity 34    
Maximum Humidity 60    
Minimum Humidity 13    
Precipitation  
Precipitation 0.00 in - - ()
Sea Level Pressure  
Sea Level Pressure 29.79 in    
Wind  
Wind Speed 7 mph ()    
Max Wind Speed 14 mph    
Max Gust Speed -    
T = Trace of Precipitation, MM = Missing Value Source: Averaged Metar Reports

Daily Weather History Graph

Daily Weather History Graph

Search for Another Location

Airport or City:

Trip Planner

Search our weather history database for the weather conditions in past years. The results will help you decide how hot, cold, wet, or windy it might be!

Date:

Astronomy

Mar. 23, 2014 Rise Set
Actual Time 5:43 AM EET 5:55 PM EET
Civil Twilight 5:19 AM EET 6:18 PM EET
Nautical Twilight 4:52 AM EET 6:46 PM EET
Astronomical Twilight 4:25 AM EET 7:13 PM EET
Moon No Moon Rise 10:28 AM EET (3/23)
Length of Visible Light 12h 58m
Length of Day
12h 11m
Waning Gibbous, 57% of the Moon is Illuminated
Mar 23
Waning Gibbous
Mar 24
Last Quarter
Mar 30
New
Apr 7
First Quarter
Apr 15
Full

Hourly Weather History & Observations

Time (EET) Temp. Heat Index Dew Point Humidity Pressure Visibility Wind Dir Wind Speed Gust Speed Precip Events Conditions
12:00 AM 71.6 °F - 44.6 °F 38% 29.83 in - North 9.2 mph - N/A   Clear
1:00 AM 71.6 °F - 41.0 °F 33% 29.83 in - North 10.4 mph - N/A   Clear
2:00 AM 69.8 °F - 39.2 °F 33% 29.80 in - NNW 3.5 mph - N/A   Clear
3:00 AM 69.8 °F - 42.8 °F 38% 29.80 in - North 6.9 mph - N/A   Clear
4:00 AM 69.8 °F - 48.2 °F 46% 29.80 in - North 8.1 mph - N/A   Clear
5:00 AM 69.8 °F - 53.6 °F 56% 29.80 in - North 8.1 mph - N/A   Clear
6:00 AM 69.8 °F - 55.4 °F 60% 29.83 in - North 11.5 mph - N/A   Clear
7:00 AM 71.6 °F - 57.2 °F 60% 29.83 in - North 13.8 mph - N/A   Clear
8:00 AM 75.2 °F - 55.4 °F 50% 29.83 in - North 13.8 mph - N/A   Clear
9:00 AM 77.0 °F - 53.6 °F 44% 29.86 in - North 10.4 mph - N/A   Clear
10:00 AM 82.4 °F 81.4 °F 53.6 °F 37% 29.86 in - NNE 9.2 mph - N/A   Clear
11:00 AM 84.2 °F - 44.6 °F 25% 29.83 in - NNE 8.1 mph - N/A   Clear
12:00 PM 87.8 °F - 41.0 °F 19% 29.80 in - NE 5.8 mph - N/A   Clear
1:00 PM 91.4 °F - 37.4 °F 15% 29.77 in - East 5.8 mph - N/A   Clear
2:00 PM 87.8 °F - 30.2 °F 13% 29.77 in - SE 6.9 mph - N/A   Clear
3:00 PM 84.2 °F - 42.8 °F 23% 29.74 in - SE 4.6 mph - N/A   Clear
4:00 PM 80.6 °F 80.3 °F 53.6 °F 39% 29.74 in - East 2.3 mph - N/A   Clear
5:00 PM 80.6 °F 80.3 °F 53.6 °F 39% 29.74 in - Variable 2.3 mph - N/A   Clear
6:00 PM 78.8 °F - 53.6 °F 42% 29.77 in - NNE 5.8 mph - N/A   Clear
7:00 PM 82.4 °F - 26.6 °F 13% 29.74 in - ENE 5.8 mph - N/A   Clear
8:00 PM 78.8 °F - 37.4 °F 23% 29.77 in - North 3.5 mph - N/A   Clear
9:00 PM 77.0 °F - 39.2 °F 26% 29.77 in - North 3.5 mph - N/A   Clear
10:00 PM 77.0 °F - 32.0 °F 19% 29.77 in - West 3.5 mph - N/A   Clear
11:00 PM 73.4 °F - 41.0 °F 31% 29.77 in - North 5.8 mph - N/A   Clear